Theta_e
305 305 302 301 300 296 293 294 295 294 294 297 295 299 300 302 302 303 304 304 303 303 303 304 303 304 304 305 307 307 308 308 309 312 312 314 313 314 314 315 314 316 316 316 316 322 327 321 323 328 324 322 322 323
306 305 305 304 304 304 298 294 294 296 295 295 296 296 300 301 303 303 305 305 302 302 304 303 303 302 302 304 305 304 307 307 307 311 313 312 316 315 317 321 316 322 319 321 319 324 319 318 321 319 319 321 321 322
306 306 305 305 305 304 305 300 296 296 297 296 296 295 300 301 302 303 305 304 303 303 305 307 307 304 303 304 303 306 306 307 307 308 309 310 313 312 318 317 317 316 316 319 320 320 319 316 316 316 317 319 320 320
304 306 305 305 305 305 304 305 301 300 298 296 297 299 300 301 302 303 305 305 304 303 305 309 306 306 306 304 304 302 303 303 307 307 310 310 311 312 314 311 313 312 313 317 318 318 319 316 315 315 316 317 319 320
304 305 304 305 305 305 304 305 304 303 300 297 299 300 300 301 301 303 304 304 303 304 309 308 306 307 306 306 305 303 303 303 307 309 310 311 310 311 313 313 314 314 316 317 319 314 316 316 314 314 316 315 316 319
304 304 303 304 305 304 304 304 304 304 299 300 299 298 299 304 303 304 308 305 304 302 304 308 308 309 307 308 309 307 306 307 308 309 310 309 310 312 313 313 313 311 311 312 314 314 314 314 314 314 315 313 315 318
304 304 303 303 303 304 304 304 304 302 300 302 297 296 303 306 305 308 309 306 304 302 304 308 311 309 308 309 310 308 308 309 309 310 310 312 311 313 311 312 312 311 309 310 310 312 315 315 316 313 312 313 314 318
302 301 302 303 302 302 303 304 303 301 301 303 295 303 305 305 305 307 306 304 303 305 305 308 313 312 310 312 312 310 311 310 309 311 311 310 310 312 315 311 309 309 308 309 311 311 312 312 313 312 313 313 315 318
300 301 301 301 301 301 302 303 303 302 302 303 296 304 305 306 309 306 304 303 304 306 307 307 310 312 311 312 311 310 310 313 310 311 309 309 310 314 309 309 308 308 308 308 308 309 311 313 313 312 313 313 316 318
299 299 300 301 301 301 301 301 301 300 302 302 302 307 311 307 303 304 305 306 305 307 308 309 309 311 310 312 311 311 310 311 313 313 310 311 314 311 311 312 311 310 310 310 311 312 313 315 314 314 314 313 314 315
297 298 300 300 301 300 300 300 299 299 302 303 304 304 301 301 305 309 309 310 309 310 309 310 312 312 310 311 310 308 310 311 315 314 312 314 313 312 311 310 310 310 310 310 311 312 312 313 313 315 314 314 313 315
294 296 298 299 299 300 299 300 297 301 302 301 300 298 299 304 310 311 312 311 312 311 313 313 312 311 311 308 309 309 309 311 315 311 313 313 313 312 310 310 311 311 310 311 311 312 312 313 312 313 314 314 314 314
295 295 296 298 299 299 299 298 298 299 299 301 300 302 307 310 310 312 310 310 311 310 310 310 310 312 310 309 310 310 312 313 311 315 314 313 313 311 311 311 312 311 311 311 312 312 312 312 312 313 314 314 315 317
294 295 296 297 298 299 298 299 299 299 300 304 306 310 312 312 312 313 312 309 309 309 309 309 310 313 311 311 309 310 311 310 314 315 315 313 313 311 311 311 312 312 311 311 313 312 311 312 314 314 315 316 317 317
294 296 297 298 299 298 299 299 299 299 302 305 307 310 311 311 311 310 310 310 310 310 310 310 310 311 312 311 309 309 311 313 313 315 314 313 312 312 312 312 312 312 312 311 312 314 314 315 316 317 317 317 317 316
293 294 298 297 297 297 298 298 300 301 302 304 307 312 312 311 309 310 310 310 310 310 310 310 310 312 312 311 310 309 311 316 314 314 313 312 312 311 311 311 311 312 313 312 312 312 313 313 313 314 315 315 316 317
293 297 296 296 297 298 298 299 301 302 305 308 311 310 309 310 309 308 308 308 310 310 309 308 309 310 311 313 311 314 313 311 313 312 311 312 312 312 311 310 311 311 313 312 311 311 311 311 310 310 312 311 312 315
293 294 295 295 297 298 299 298 302 305 306 309 311 311 311 310 310 309 309 309 310 309 309 308 309 311 312 314 316 313 314 313 312 311 311 311 311 311 309 310 309 310 312 311 311 310 311 311 310 310 310 310 310 310
292 293 294 296 297 297 300 301 302 305 307 309 310 311 310 309 309 309 309 309 310 309 309 309 309 310 311 310 308 308 310 310 309 310 310 311 311 311 310 309 307 308 310 311 311 311 310 310 311 309 309 310 311 309
292 294 295 296 296 297 301 302 301 304 307 310 309 310 310 310 309 309 309 309 309 309 309 309 309 309 309 309 309 309 309 309 309 309 309 310 309 309 309 309 309 307 308 308 309 309 310 311 310 310 309 308 308 308
293 296 295 296 296 296 298 303 303 303 305 306 307 309 309 309 309 309 309 309 309 308 308 308 308 308 308 308 308 309 309 310 309 308 308 308 309 309 308 308 308 308 308 308 309 310 310 310 310 310 309 309 306 305
293 294 295 296 297 298 299 301 304 302 302 305 306 307 307 308 308 308 308 308 308 309 309 308 308 308 307 308 310 310 308 309 309 308 306 306 309 309 308 307 307 307 307 307 308 309 309 308 309 309 307 307 306 305
292 293 295 296 298 299 300 301 303 303 304 304 304 305 307 307 306 305 307 308 308 308 308 307 307 307 307 307 308 309 310 310 310 309 308 308 307 307 306 306 306 306 307 306 307 307 308 308 308 307 307 307 306 305
294 295 297 296 298 300 300 303 303 304 306 306 307 306 307 308 307 307 307 307 308 307 307 307 307 307 308 308 308 309 310 309 309 309 308 307 308 307 304 304 305 305 305 306 307 307 308 307 306 306 306 305 305 304
298 297 297 297 298 301 302 301 303 305 304 305 306 307 307 306 307 306 306 307 307 306 306 306 307 307 308 308 309 309 310 309 310 309 307 306 305 304 304 303 304 305 305 305 306 307 307 306 305 305 304 304 304 303
295 297 297 298 299 300 302 301 301 303 304 304 304 305 306 306 306 306 306 306 306 306 306 306 306 307 307 307 307 309 310 308 308 309 306 304 303 302 302 302 303 305 305 305 305 306 306 305 304 304 303 302 301 301
296 296 297 298 299 300 301 302 302 303 303 304 305 306 306 307 306 305 304 305 305 304 304 303 304 306 307 306 306 307 308 307 307 306 305 303 304 303 301 302 304 305 304 304 304 304 303 303 303 302 301 299 298 298
294 294 296 298 298 299 299 300 300 302 303 304 306 307 306 305 306 305 305 304 303 302 302 303 303 303 305 306 306 308 307 306 306 305 304 304 303 303 303 303 303 303 303 301 302 302 302 302 301 300 299 298 297 295
294 295 296 296 296 297 298 298 299 300 301 301 303 303 302 303 304 304 303 303 302 301 302 302 303 303 303 305 306 306 306 305 305 306 305 305 304 302 302 302 302 302 301 298 298 298 298 298 298 298 297 297 296 295
295 295 295 296 295 296 296 297 297 298 298 299 299 300 301 301 302 302 301 301 301 302 301 301 302 302 304 305 304 304 304 305 304 304 304 304 304 301 300 301 302 302 301 301 299 297 295 297 296 296 295 295 294 294
295 295 295 296 296 296 296 297 297 298 298 298 298 300 300 300 300 297 294 296 299 300 301 302 302 301 302 303 304 304 302 300 300 300 301 301 300 300 300 300 300 301 300 300 299 298 297 296 295 294 294 293 291 291
296 295 296 296 296 297 297 298 298 298 298 299 299 298 299 299 302 296 290 291 293 295 296 299 301 298 297 297 297 297 298 297 296 296 297 297 298 298 298 299 299 299 298 298 297 296 295 295 294 293 291 291 290 290
295 296 297 297 297 297 297 297 298 299 299 301 300 300 300 301 296 292 289 289 289 291 290 290 290 290 290 291 292 292 292 291 292 293 294 294 295 296 296 297 297 296 296 295 295 294 293 292 292 291 290 289 288 287
Wind_Speed
23 24 23 24 27 27 26 27 28 28 28 23 27 24 20 13 9 7 8 9 8 4 12 15 13 10 3 4 3 8 7 1 3 2 4 4 4 4 4 2 7 7 6 5 3 5 5 15 4 4 7 7 8 10
24 24 24 24 27 29 29 28 29 29 29 28 26 28 20 15 8 7 8 7 10 6 8 22 22 20 17 21 9 3 5 5 2 3 3 3 3 2 4 1 5 3 1 1 2 3 4 8 8 8 7 7 10 11
26 25 25 26 27 28 30 30 30 31 32 30 26 30 22 18 10 9 10 5 3 4 8 5 1 9 9 6 8 3 2 3 3 5 2 2 3 3 3 3 5 2 5 2 7 4 6 4 8 9 11 11 12 12
28 28 26 27 28 28 30 31 32 33 33 27 30 31 25 18 11 9 9 6 6 4 3 2 3 7 6 11 12 18 10 6 7 5 2 2 4 3 2 2 2 3 5 4 6 4 4 7 9 14 14 13 15 14
26 27 27 28 28 29 30 31 32 34 34 30 35 33 27 18 9 8 9 9 10 3 4 7 21 3 6 7 11 14 12 6 3 3 3 2 3 4 1 2 1 1 5 3 2 10 6 8 11 15 11 16 17 15
27 26 28 28 28 28 30 31 31 34 33 35 35 31 21 13 7 6 4 5 11 9 2 3 7 5 6 6 5 12 6 4 2 3 3 3 4 5 4 2 4 6 7 9 9 15 15 15 14 12 13 17 17 16
27 26 27 26 27 28 29 30 30 33 32 38 35 25 16 5 11 3 3 4 9 10 2 4 4 2 4 1 3 2 5 3 3 3 2 5 5 7 3 4 11 10 11 14 16 17 15 8 12 14 15 17 17 14
27 26 26 26 26 27 27 29 31 31 34 39 27 16 4 11 6 3 2 1 13 3 2 3 4 4 3 3 1 1 2 3 2 3 2 2 5 4 3 13 16 17 16 15 13 15 17 18 17 15 15 14 15 13
25 25 24 26 26 27 28 28 30 31 34 32 21 4 2 3 3 3 2 6 5 3 2 2 3 3 4 1 2 2 1 2 0 1 0 2 2 2 6 13 13 15 10 15 16 16 17 17 17 15 15 13 12 12
23 23 23 25 26 26 28 28 29 29 32 20 4 5 3 3 7 6 4 3 2 3 3 3 2 3 3 3 1 2 1 2 2 2 1 2 1 9 7 11 8 13 14 13 14 14 13 15 14 15 15 13 12 12
23 24 23 23 23 26 27 26 28 24 13 10 6 2 9 11 4 3 3 3 4 3 4 4 4 5 2 2 3 1 3 1 2 3 2 1 4 11 14 14 13 12 14 15 12 13 15 16 14 15 13 11 11 12
22 23 24 24 24 25 24 26 16 15 12 11 14 13 6 3 4 4 4 3 5 1 5 3 2 3 1 1 2 2 2 2 1 2 2 4 6 13 15 16 17 13 14 14 13 13 13 13 10 11 11 10 10 13
22 23 23 23 24 24 25 15 21 20 19 3 2 3 3 3 3 5 5 3 3 4 3 2 3 1 3 3 3 2 2 1 4 2 3 3 10 12 15 15 17 16 16 15 14 10 5 7 7 8 7 10 10 12
21 22 22 22 22 17 14 22 21 18 5 3 2 4 5 5 5 4 5 2 2 3 3 4 2 3 2 3 1 2 0 1 2 1 2 5 10 13 14 15 15 16 16 17 13 9 5 5 5 6 7 9 9 7
21 22 22 16 8 9 24 27 25 9 4 4 4 5 6 6 4 4 4 3 4 3 3 3 2 3 3 3 1 2 2 2 2 2 3 5 8 11 14 14 16 16 14 13 15 13 13 11 9 8 8 7 8 9
20 19 5 14 19 23 23 24 11 4 3 3 6 5 5 5 7 6 7 7 4 3 2 3 2 3 3 2 2 3 2 3 2 3 4 4 6 8 11 14 15 15 13 11 9 14 15 13 11 13 13 13 12 11
17 5 16 22 25 25 25 7 4 5 4 5 5 7 9 7 7 6 4 6 4 5 5 2 3 2 2 3 2 3 4 3 4 3 2 3 4 6 8 11 13 13 14 15 17 13 16 18 18 18 14 17 18 16
16 17 20 23 24 19 5 5 4 4 7 7 6 7 8 7 7 7 5 5 5 6 5 5 2 6 4 3 2 4 5 5 4 4 4 3 2 3 6 9 11 15 15 17 19 15 16 17 13 10 20 21 18 19
21 22 22 22 14 5 3 4 4 4 7 6 8 8 6 7 7 8 7 5 7 5 3 4 6 7 8 5 6 5 3 4 4 2 3 3 2 3 5 7 9 11 12 15 16 14 16 18 17 18 19 20 14 17
21 18 14 10 5 3 4 4 4 4 4 3 4 6 6 6 5 5 7 7 7 5 6 6 11 11 8 7 6 5 4 3 3 4 3 3 2 2 3 6 7 9 9 10 11 14 16 16 18 18 20 18 16 19
18 5 11 5 3 7 4 4 4 4 5 4 5 5 5 4 6 7 7 6 7 5 9 9 10 11 11 9 8 5 6 5 5 4 3 2 2 3 3 4 7 9 8 7 6 8 9 11 14 14 17 16 18 21
9 11 6 5 4 4 5 8 5 4 3 5 6 7 7 8 9 9 5 6 5 9 10 9 9 9 9 11 9 13 11 11 8 4 3 4 4 1 1 3 6 5 7 8 10 7 11 14 16 16 15 13 14 16
12 9 5 6 5 5 6 8 6 5 5 4 3 4 4 3 2 2 3 5 4 5 5 6 7 11 10 11 10 11 13 13 7 5 5 4 2 1 2 3 3 5 5 9 9 10 10 11 14 12 11 14 15 16
9 4 3 4 6 5 3 4 3 4 5 8 5 7 6 4 2 3 4 6 6 3 4 6 5 6 7 9 8 8 13 15 10 7 7 6 4 3 2 3 2 4 7 9 8 8 8 11 10 12 11 10 12 13
5 6 4 7 4 4 6 5 8 7 9 10 12 11 4 3 3 4 5 3 4 4 5 5 5 5 6 6 5 5 12 14 8 7 9 7 3 5 2 1 1 3 6 7 9 8 8 10 9 10 11 14 13 13
6 6 8 4 3 6 6 7 8 14 14 14 6 4 1 4 5 5 3 2 3 4 5 5 5 5 5 6 5 6 11 14 14 7 10 8 5 1 1 1 1 6 6 6 7 8 9 9 9 10 11 12 14 13
7 8 7 6 4 5 4 6 8 5 6 5 4 5 3 4 5 1 3 3 3 4 7 9 8 5 6 6 6 6 13 15 15 12 13 10 7 4 3 3 4 5 4 6 7 8 8 8 8 8 8 9 11 12
9 8 16 12 9 6 11 12 9 4 4 4 2 4 4 5 2 2 2 3 5 8 11 11 8 7 7 6 8 13 15 14 14 15 14 11 7 6 7 8 8 9 7 6 5 5 6 6 7 8 8 8 9 10
8 8 10 15 15 10 10 11 11 8 7 8 7 8 8 4 4 4 7 9 13 12 9 9 8 6 2 1 5 13 16 16 14 14 14 8 7 8 8 9 9 7 6 8 8 8 8 7 7 7 7 7 7 8
13 10 14 17 18 19 15 13 13 11 10 10 10 11 9 7 6 8 10 10 10 8 11 11 9 8 5 5 6 4 5 6 6 7 8 8 7 10 10 9 8 7 5 4 3 4 6 4 5 6 6 7 7 7
9 7 9 13 16 14 13 11 12 13 12 11 12 12 12 8 3 8 12 11 11 11 11 9 4 1 1 4 6 7 6 5 6 7 8 9 11 10 9 8 7 6 5 3 3 4 5 5 5 7 7 8 9 8
8 11 11 15 13 11 9 9 9 10 6 7 11 11 10 5 4 3 16 16 11 8 10 10 4 7 6 4 6 10 15 12 10 12 12 10 9 7 6 5 5 5 6 7 7 7 6 7 7 7 7 8 8 8
9 10 11 9 6 7 8 9 4 5 8 9 8 8 4 2 4 4 9 16 10 9 8 9 10 12 13 13 13 14 14 14 14 13 12 11 11 9 8 7 7 8 9 8 8 7 7 7 7 7 8 9 9 9
Wind_Direction
338 339 341 344 344 341 340 343 346 347 350 337 345 344 340 334 314 288 273 223 213 254 283 280 287 286 273 260 271 322 309 48 299 293 310 353 343 323 296 100 173 178 191 182 231 245 179 3 57 331 17 347 343 339
331 334 337 339 342 342 339 337 341 343 342 344 335 342 334 330 308 271 270 219 230 239 271 299 285 276 263 261 263 275 296 312 286 295 325 307 295 281 297 201 180 235 44 332 295 38 64 17 56 42 1 345 351 337
326 328 331 334 336 339 340 338 338 340 341 340 338 337 328 323 300 248 262 248 215 263 286 263 336 233 262 270 238 252 236 280 237 301 313 289 302 334 328 24 307 170 23 304 289 65 14 104 30 15 358 341 342 341
317 320 325 327 330 335 338 338 337 336 339 342 339 333 326 317 297 242 227 239 231 287 290 337 184 313 272 238 212 213 245 293 300 295 292 269 271 203 306 285 301 331 323 301 293 28 48 163 0 351 338 338 335 339
312 317 320 322 325 331 333 336 334 333 337 338 335 327 322 311 278 226 224 230 224 254 313 311 307 245 279 249 227 208 222 234 259 266 267 264 321 315 253 207 4 270 348 346 327 329 328 332 323 332 327 338 328 338
306 310 312 317 321 328 329 333 333 332 336 338 332 328 322 306 195 175 206 196 210 192 274 290 343 269 332 345 51 178 217 217 263 266 272 279 273 337 312 291 85 10 348 332 313 314 303 296 290 314 324 323 320 323
309 308 310 313 318 324 328 331 335 333 334 338 336 330 320 239 175 253 20 103 177 170 236 281 280 124 326 300 128 168 218 267 283 308 265 335 349 324 280 342 0 341 322 310 306 307 300 332 317 318 309 309 308 313
307 309 311 313 315 321 324 327 333 333 333 336 334 334 2 150 166 173 86 137 159 225 217 285 288 290 25 347 20 257 195 218 237 311 9 334 311 313 338 338 324 318 318 307 305 323 304 299 293 298 301 309 310 312
310 312 310 312 317 318 322 322 326 331 332 334 330 236 235 219 202 48 274 166 177 279 288 250 298 303 339 354 268 233 277 257 232 289 233 286 324 336 290 305 294 297 287 289 290 287 288 286 286 289 288 303 310 316
315 314 311 310 312 315 319 323 324 329 334 337 346 245 203 65 324 143 188 175 195 201 225 251 321 288 321 318 277 287 217 261 265 96 245 247 235 257 313 322 326 319 308 297 273 286 291 293 295 295 293 296 296 301
316 317 316 313 313 313 318 324 326 340 358 352 336 315 330 314 208 208 200 217 163 220 208 229 269 301 100 294 312 13 301 360 266 77 346 312 353 353 350 349 344 313 309 296 303 276 273 282 293 290 285 291 295 296
310 314 315 316 316 315 319 324 332 343 322 297 282 299 285 256 208 229 202 165 217 263 170 243 346 235 127 239 267 281 284 260 338 21 254 343 4 353 348 340 334 324 314 319 314 299 267 257 278 282 281 285 290 295
321 316 313 315 313 316 319 321 332 324 326 279 187 233 230 205 227 218 202 183 213 189 172 249 302 136 177 232 255 285 271 269 312 270 345 322 350 354 351 345 339 346 346 336 329 330 262 272 288 275 279 281 287 299
322 319 314 312 310 318 337 334 328 330 298 267 261 268 228 205 230 207 201 216 115 248 268 306 294 226 193 217 230 258 270 290 260 293 265 355 346 349 349 349 349 350 354 350 354 28 15 334 332 319 311 315 306 304
315 319 312 323 320 309 325 322 321 299 255 252 208 243 231 242 250 227 230 221 201 245 251 236 196 230 184 249 206 265 234 237 225 252 307 339 354 345 345 351 351 358 359 6 0 21 26 12 360 348 355 338 331 327
321 324 344 338 323 318 315 321 310 206 241 236 235 253 234 253 249 220 228 238 193 203 198 244 243 219 199 225 212 220 242 232 219 223 286 328 344 352 347 342 354 358 356 23 19 11 20 21 15 4 5 7 351 346
329 267 317 319 325 321 316 286 232 224 236 227 240 233 260 270 275 281 262 246 158 210 250 227 242 237 119 228 230 208 217 220 236 271 302 328 318 346 345 344 348 355 5 14 20 24 26 20 22 15 5 357 352 350
303 306 310 314 323 322 283 229 243 242 245 239 245 247 219 254 270 264 241 222 212 228 229 235 229 213 216 198 213 215 227 247 259 278 321 324 306 334 351 352 352 357 359 8 23 23 26 35 28 17 11 8 6 4
305 303 307 311 309 298 278 230 235 262 243 263 260 263 256 258 253 258 266 237 229 252 232 211 242 235 227 224 251 279 207 229 256 244 292 277 278 337 335 350 1 6 6 5 12 9 13 20 29 30 19 2 8 9
311 308 310 310 287 236 259 243 225 260 264 291 264 258 242 257 274 252 243 220 207 208 213 224 235 245 243 232 253 265 276 213 228 257 216 153 219 260 352 341 2 344 2 16 17 18 4 12 19 17 22 25 10 359
315 289 317 305 238 230 273 274 245 247 283 262 286 271 268 235 248 240 233 212 212 231 237 238 247 249 246 251 260 239 221 215 222 257 304 254 51 305 325 343 338 346 351 4 14 11 6 21 5 5 15 31 26 14
268 300 282 235 248 231 251 240 251 320 260 265 273 253 269 267 264 255 229 213 238 239 250 255 256 247 245 231 225 224 227 196 210 177 202 220 244 275 359 356 336 341 346 8 355 359 6 22 15 30 32 8 27 19
258 247 237 233 232 227 255 214 232 219 245 239 231 247 229 225 236 142 224 226 253 272 278 281 263 256 251 253 214 213 210 198 198 206 175 212 198 198 286 307 341 348 342 355 345 351 7 22 31 27 27 28 28 25
246 233 234 235 213 247 236 223 217 253 236 233 241 252 256 243 162 236 245 260 274 333 289 279 269 252 224 236 230 216 198 201 197 182 176 185 209 124 344 2 350 9 353 333 356 354 10 37 43 32 29 16 13 19
236 209 227 236 236 231 225 227 220 226 237 241 251 255 251 202 234 236 234 250 22 17 2 329 281 268 247 216 205 197 177 192 178 179 173 192 163 180 175 172 87 25 358 350 5 13 27 44 42 39 32 22 16 18
242 216 208 221 230 220 222 234 231 238 241 243 245 242 232 228 234 238 188 62 31 17 358 336 326 308 268 255 252 187 189 201 174 177 160 173 163 146 62 24 61 86 20 13 20 33 47 53 40 36 29 20 20 14
237 225 211 227 245 277 267 256 267 268 257 237 222 203 202 222 231 151 133 90 52 22 356 348 335 310 290 280 235 200 175 180 182 173 156 146 135 118 107 99 88 81 62 54 55 52 50 52 51 43 39 35 28 24
230 247 237 228 228 236 261 268 281 265 241 205 238 222 214 197 231 85 75 40 347 331 332 328 340 337 309 264 193 171 158 147 132 127 127 125 134 139 129 117 119 123 105 69 42 44 50 54 65 66 61 52 38 35
227 232 247 246 250 249 240 245 248 252 266 276 267 278 287 321 325 306 326 336 322 316 317 329 330 330 338 44 163 162 164 165 165 173 180 172 169 170 166 151 151 144 121 93 90 76 66 69 68 65 56 50 48 47
233 225 239 242 247 247 248 255 262 271 281 288 296 293 285 278 323 357 337 324 321 315 313 304 301 287 251 199 147 124 145 180 228 223 211 199 181 157 159 160 163 166 164 157 134 101 74 80 78 69 68 62 50 45
241 211 222 236 249 255 262 260 255 260 261 270 269 263 261 285 47 53 23 346 324 314 300 287 252 352 305 220 175 166 142 111 103 89 88 111 138 146 147 150 157 163 165 170 156 141 127 101 85 79 73 72 68 63
238 236 233 239 246 251 259 264 259 263 260 239 243 252 263 249 212 67 9 4 4 1 355 357 34 67 70 82 86 79 109 111 104 106 106 115 123 131 143 152 160 159 155 144 137 135 128 122 116 107 94 83 77 73
229 234 240 248 253 265 251 237 259 256 242 232 247 224 202 164 86 31 8 18 18 17 42 61 71 75 81 81 81 83 89 91 99 103 113 122 126 123 117 119 133 145 144 137 132 129 123 119 114 111 105 99 91 83